Time,TemperatureF,DewpointF,PressureIn,WindDirection,WindDirectionDegrees,WindSpeedMPH,WindSpeedGustMPH,Humidity,HourlyPrecipIn,Conditions,Clouds,dailyrainin,SoftwareType,DateUTC
2013-03-24 00:04:00,25.5,25.0,29.60,West,270,4.2,-999.0,98,-99.99,,,0.00,Acu-Link.com,2013-03-24 04:04:00,
2013-03-24 00:20:00,25.5,24.5,29.60,SW,225,2.2,-999.0,96,-99.99,,,0.00,Acu-Link.com,2013-03-24 04:20:00,
2013-03-24 00:35:00,25.5,24.8,29.60,WSW,247,7.3,-999.0,97,-99.99,,,0.00,Acu-Link.com,2013-03-24 04:35:00,
2013-03-24 00:50:00,25.5,24.8,29.60,West,270,4.2,-999.0,97,-99.99,,,0.00,Acu-Link.com,2013-03-24 04:50:00,
2013-03-24 01:05:00,25.5,24.8,29.60,West,270,7.8,-999.0,97,-99.99,,,0.00,Acu-Link.com,2013-03-24 05:05:00,
2013-03-24 01:21:00,25.5,24.8,29.60,SW,225,6.8,-999.0,97,-99.99,,,0.00,Acu-Link.com,2013-03-24 05:21:00,
2013-03-24 02:21:00,25.3,24.6,29.62,SW,225,6.3,-999.0,97,-99.99,,,0.00,Acu-Link.com,2013-03-24 06:21:00,
2013-03-24 02:37:00,25.3,24.8,29.61,West,270,7.3,-999.0,98,-99.99,,,0.00,Acu-Link.com,2013-03-24 06:37:00,
2013-03-24 02:52:00,25.3,24.8,29.61,SW,225,9.9,-999.0,98,-99.99,,,0.00,Acu-Link.com,2013-03-24 06:52:00,
2013-03-24 03:22:00,25.3,25.1,29.62,WSW,247,7.8,-999.0,99,-99.99,,,0.00,Acu-Link.com,2013-03-24 07:22:00,
2013-03-24 03:37:00,25.3,25.1,29.62,WNW,292,3.7,-999.0,99,-99.99,,,0.00,Acu-Link.com,2013-03-24 07:37:00,
2013-03-24 03:53:00,25.2,25.0,29.62,WSW,247,6.3,-999.0,99,-99.99,,,0.00,Acu-Link.com,2013-03-24 07:53:00,
2013-03-24 04:09:00,25.2,25.0,29.62,WSW,247,4.7,-999.0,99,-99.99,,,0.00,Acu-Link.com,2013-03-24 08:09:00,
2013-03-24 04:24:00,25.2,25.0,29.62,West,270,5.3,-999.0,99,-99.99,,,0.00,Acu-Link.com,2013-03-24 08:24:00,
2013-03-24 04:39:00,25.2,25.0,29.62,WSW,247,7.8,-999.0,99,-99.99,,,0.00,Acu-Link.com,2013-03-24 08:39:00,
2013-03-24 04:54:00,25.2,25.0,29.62,West,270,5.3,-999.0,99,-99.99,,,0.00,Acu-Link.com,2013-03-24 08:54:00,
2013-03-24 05:09:00,25.2,25.0,29.61,WNW,292,2.7,-999.0,99,-99.99,,,0.00,Acu-Link.com,2013-03-24 09:09:00,
2013-03-24 05:24:00,25.2,25.0,29.62,WNW,292,7.3,-999.0,99,-99.99,,,0.00,Acu-Link.com,2013-03-24 09:24:00,
2013-03-24 05:39:00,25.2,25.0,29.61,NW,315,2.2,-999.0,99,-99.99,,,0.00,Acu-Link.com,2013-03-24 09:39:00,
2013-03-24 05:55:00,25.2,25.0,29.61,WNW,292,3.2,-999.0,99,-99.99,,,0.00,Acu-Link.com,2013-03-24 09:55:00,
2013-03-24 06:10:00,25.2,25.0,29.62,SW,225,2.2,-999.0,99,-99.99,,,0.00,Acu-Link.com,2013-03-24 10:10:00,
2013-03-24 06:25:00,25.0,24.8,29.62,WNW,292,7.3,-999.0,99,-99.99,,,0.00,Acu-Link.com,2013-03-24 10:25:00,
2013-03-24 06:40:00,25.0,24.8,29.62,West,270,4.2,-999.0,99,-99.99,,,0.00,Acu-Link.com,2013-03-24 10:40:00,
2013-03-24 06:56:00,25.0,24.8,29.62,West,270,4.7,-999.0,99,-99.99,,,0.00,Acu-Link.com,2013-03-24 10:56:00,
2013-03-24 07:26:00,25.3,25.1,29.64,SW,225,6.3,-999.0,99,-99.99,,,0.00,Acu-Link.com,2013-03-24 11:26:00,
2013-03-24 07:41:00,25.5,25.3,29.64,West,270,4.7,-999.0,99,-99.99,,,0.00,Acu-Link.com,2013-03-24 11:41:00,
2013-03-24 07:56:00,25.7,25.5,29.67,West,270,7.3,-999.0,99,-99.99,,,0.00,Acu-Link.com,2013-03-24 11:56:00,
2013-03-24 08:12:00,26.2,26.0,29.67,WSW,247,7.3,-999.0,99,-99.99,,,0.00,Acu-Link.com,2013-03-24 12:12:00,
2013-03-24 08:27:00,26.6,26.4,29.67,West,270,5.8,-999.0,99,-99.99,,,0.00,Acu-Link.com,2013-03-24 12:27:00,
2013-03-24 08:42:00,27.1,26.6,29.68,SW,225,7.3,-999.0,98,-99.99,,,0.00,Acu-Link.com,2013-03-24 12:42:00,
2013-03-24 08:57:00,27.1,26.6,29.67,West,270,6.8,-999.0,98,-99.99,,,0.00,Acu-Link.com,2013-03-24 12:57:00,
2013-03-24 09:12:00,28.0,27.3,29.70,NW,315,3.7,-999.0,97,-99.99,,,0.00,Acu-Link.com,2013-03-24 13:12:00,
2013-03-24 09:28:00,28.0,27.3,29.71,WSW,247,13.5,-999.0,97,-99.99,,,0.00,Acu-Link.com,2013-03-24 13:28:00,
2013-03-24 09:43:00,28.2,27.2,29.70,West,270,12.5,-999.0,96,-99.99,,,0.00,Acu-Link.com,2013-03-24 13:43:00,
2013-03-24 09:58:00,29.3,27.8,29.70,West,270,11.4,-999.0,94,-99.99,,,0.00,Acu-Link.com,2013-03-24 13:58:00,
2013-03-24 10:14:00,29.5,27.5,29.70,West,270,8.3,-999.0,92,-99.99,,,0.00,Acu-Link.com,2013-03-24 14:14:00,
2013-03-24 10:29:00,30.0,27.2,29.69,West,270,8.3,-999.0,89,-99.99,,,0.00,Acu-Link.com,2013-03-24 14:29:00,
2013-03-24 10:44:00,30.9,27.8,29.70,West,270,5.3,-999.0,88,-99.99,,,0.00,Acu-Link.com,2013-03-24 14:44:00,
2013-03-24 10:59:00,30.6,27.2,29.70,West,270,6.8,-999.0,87,-99.99,,,0.00,Acu-Link.com,2013-03-24 14:59:00,
2013-03-24 11:14:00,30.7,27.3,29.69,NW,315,3.7,-999.0,87,-99.99,,,0.00,Acu-Link.com,2013-03-24 15:14:00,
2013-03-24 11:30:00,30.6,26.9,29.69,SW,225,3.2,-999.0,86,-99.99,,,0.00,Acu-Link.com,2013-03-24 15:30:00,
2013-03-24 11:45:00,31.1,27.7,29.68,SW,225,3.7,-999.0,87,-99.99,,,0.00,Acu-Link.com,2013-03-24 15:45:00,
2013-03-24 12:00:00,31.8,27.8,29.68,WSW,247,2.7,-999.0,85,-99.99,,,0.00,Acu-Link.com,2013-03-24 16:00:00,
2013-03-24 12:15:00,31.5,27.8,29.68,West,270,6.3,-999.0,86,-99.99,,,0.00,Acu-Link.com,2013-03-24 16:15:00,
2013-03-24 12:30:00,31.8,27.8,29.68,West,270,7.3,-999.0,85,-99.99,,,0.00,Acu-Link.com,2013-03-24 16:30:00,
2013-03-24 13:16:00,32.7,27.5,29.68,SW,225,8.3,-999.0,81,-99.99,,,0.00,Acu-Link.com,2013-03-24 17:16:00,
2013-03-24 13:47:00,34.5,28.4,29.67,West,270,9.9,-999.0,78,-99.99,,,0.00,Acu-Link.com,2013-03-24 17:47:00,
2013-03-24 14:02:00,33.6,27.2,29.69,WSW,247,4.7,-999.0,77,-99.99,,,0.00,Acu-Link.com,2013-03-24 18:02:00,
2013-03-24 14:17:00,33.3,27.2,29.68,WNW,292,4.2,-999.0,78,-99.99,,,0.01,Acu-Link.com,2013-03-24 18:17:00,
2013-03-24 14:32:00,32.9,27.1,29.69,WSW,247,3.7,-999.0,79,-99.99,,,0.01,Acu-Link.com,2013-03-24 18:32:00,
2013-03-24 14:47:00,33.3,27.2,29.69,WNW,292,4.7,-999.0,78,-99.99,,,0.01,Acu-Link.com,2013-03-24 18:47:00,
2013-03-24 15:03:00,33.6,27.8,29.69,WSW,247,4.7,-999.0,79,-99.99,,,0.01,Acu-Link.com,2013-03-24 19:03:00,
2013-03-24 15:18:00,32.5,27.0,29.69,West,270,8.3,-999.0,80,-99.99,,,0.01,Acu-Link.com,2013-03-24 19:18:00,
2013-03-24 15:33:00,34.7,28.2,29.69,WSW,247,5.8,-999.0,77,-99.99,,,0.01,Acu-Link.com,2013-03-24 19:33:00,
2013-03-24 15:48:00,34.5,29.0,29.68,South,180,4.7,-999.0,80,-99.99,,,0.01,Acu-Link.com,2013-03-24 19:48:00,
2013-03-24 16:03:00,34.7,27.9,29.69,WNW,292,4.2,-999.0,76,-99.99,,,0.01,Acu-Link.com,2013-03-24 20:03:00,
2013-03-24 16:19:00,32.2,27.0,29.69,West,270,5.8,-999.0,81,-99.99,,,0.01,Acu-Link.com,2013-03-24 20:19:00,
2013-03-24 16:34:00,32.5,27.0,29.70,NNW,337,3.7,-999.0,80,-99.99,,,0.01,Acu-Link.com,2013-03-24 20:34:00,
2013-03-24 16:49:00,32.0,26.5,29.70,WSW,247,5.3,-999.0,80,-99.99,,,0.01,Acu-Link.com,2013-03-24 20:49:00,
2013-03-24 17:04:00,32.7,26.6,29.69,NW,315,6.3,-999.0,78,-99.99,,,0.01,Acu-Link.com,2013-03-24 21:04:00,
2013-03-24 17:20:00,33.1,26.7,29.69,NNW,337,2.7,-999.0,77,-99.99,,,0.01,Acu-Link.com,2013-03-24 21:20:00,
2013-03-24 17:35:00,32.4,26.6,29.69,WSW,247,2.2,-999.0,79,-99.99,,,0.01,Acu-Link.com,2013-03-24 21:35:00,
2013-03-24 17:50:00,31.8,26.3,29.69,NNW,337,3.2,-999.0,80,-99.99,,,0.01,Acu-Link.com,2013-03-24 21:50:00,
2013-03-24 18:05:00,31.6,26.2,29.70,WSW,247,5.3,-999.0,80,-99.99,,,0.01,Acu-Link.com,2013-03-24 22:05:00,
2013-03-24 18:20:00,31.1,26.0,29.71,SW,225,2.2,-999.0,81,-99.99,,,0.01,Acu-Link.com,2013-03-24 22:20:00,
2013-03-24 18:36:00,30.6,25.8,29.70,West,270,2.7,-999.0,82,-99.99,,,0.01,Acu-Link.com,2013-03-24 22:36:00,
2013-03-24 18:51:00,30.2,26.0,29.70,WSW,247,3.7,-999.0,84,-99.99,,,0.01,Acu-Link.com,2013-03-24 22:51:00,
2013-03-24 19:06:00,29.8,25.9,29.70,WNW,292,3.2,-999.0,85,-99.99,,,0.01,Acu-Link.com,2013-03-24 23:06:00,
2013-03-24 19:52:00,26.6,24.1,29.71,NNE,22,0.0,-999.0,90,-99.99,,,0.01,Acu-Link.com,2013-03-24 23:52:00,
2013-03-24 20:07:00,25.5,23.5,29.71,WNW,292,0.0,-999.0,92,-99.99,,,0.01,Acu-Link.com,2013-03-25 00:07:00,
2013-03-24 20:22:00,25.0,23.5,29.72,East,90,0.0,-999.0,94,-99.99,,,0.01,Acu-Link.com,2013-03-25 00:22:00,
2013-03-24 20:37:00,25.2,24.0,29.72,NE,45,0.0,-999.0,95,-99.99,,,0.01,Acu-Link.com,2013-03-25 00:37:00,
2013-03-24 20:52:00,25.3,24.1,29.72,WNW,292,0.0,-999.0,95,-99.99,,,0.01,Acu-Link.com,2013-03-25 00:52:00,
2013-03-24 21:08:00,25.3,24.3,29.72,NE,45,0.0,-999.0,96,-99.99,,,0.01,Acu-Link.com,2013-03-25 01:08:00,
2013-03-24 21:23:00,24.3,23.3,29.72,NNW,337,0.0,-999.0,96,-99.99,,,0.01,Acu-Link.com,2013-03-25 01:23:00,
2013-03-24 21:38:00,23.2,22.5,29.72,North,0,0.0,-999.0,97,-99.99,,,0.01,Acu-Link.com,2013-03-25 01:38:00,
2013-03-24 21:53:00,21.9,21.7,29.71,SE,135,0.0,-999.0,99,-99.99,,,0.01,Acu-Link.com,2013-03-25 01:53:00,
2013-03-24 22:09:00,21.2,21.0,29.70,WNW,292,0.0,-999.0,99,-99.99,,,0.01,Acu-Link.com,2013-03-25 02:09:00,
2013-03-24 22:24:00,20.3,20.1,29.70,NNE,22,0.0,-999.0,99,-99.99,,,0.01,Acu-Link.com,2013-03-25 02:24:00,
2013-03-24 22:39:00,19.4,19.2,29.70,NW,315,0.0,-999.0,99,-99.99,,,0.01,Acu-Link.com,2013-03-25 02:39:00,
2013-03-24 22:54:00,18.9,18.7,29.70,West,270,0.0,-999.0,99,-99.99,,,0.01,Acu-Link.com,2013-03-25 02:54:00,
2013-03-24 23:09:00,18.0,17.8,29.70,NE,45,0.0,-999.0,99,-99.99,,,0.01,Acu-Link.com,2013-03-25 03:09:00,
2013-03-24 23:25:00,17.8,17.6,29.71,NNE,22,0.0,-999.0,99,-99.99,,,0.01,Acu-Link.com,2013-03-25 03:25:00,
2013-03-24 23:40:00,19.8,19.6,29.71,NNW,337,1.1,-999.0,99,-99.99,,,0.01,Acu-Link.com,2013-03-25 03:40:00,
2013-03-24 23:55:00,20.7,20.5,29.71,NNE,22,0.0,-999.0,99,-99.99,,,0.01,Acu-Link.com,2013-03-25 03:55:00,